Location: Newark
(35.6799°N, 139.7636°E)
Time: 18:27:37
(UTC+00:00)

Explorer 7 - Pass Details

Date: 10 December 2019
Orbit: 485 x 679 km, 50.3° (Epoch: 19 January)

Event Time Altitude Azimuth Distance (km) Brightness Sun altitude
Rises 06:47:27 0° 247° (WSW) 2,964 12.7 6.2°
Reaches altitude 10° 06:49:50 10° 254° (WSW) 2,076 11.5 5.8°
Maximum altitude 06:54:28 45° 327° (NNW) 919 8.1 5.0°
Drops below altitude 10° 06:59:11 10° 40° (NE) 2,118 9.2 4.2°
Sets 07:01:39 0° 47° (NE) 3,031 9.9 3.7°
